AirNav   Air Wisconsin Up To $57,000 Bonus
 
 1606 users online  

N30 Cherry Ridge Airport
Honesdale, Pennsylvania, USA

GOING TO HONESDALE?


FAA INFORMATION EFFECTIVE 14 JULY 2022

Location

FAA Identifier: N30
Lat/Long: 41-30-56.1300N 075-15-05.6150W
41-30.935500N 075-15.093583W
41.5155917,-75.2515597
(estimated)
Elevation: 1357 ft. / 414 m (estimated)
Variation: 13W (2005)
From city: 3 miles S of HONESDALE, PA
Time zone: UTC -4 (UTC -5 during Standard Time)
Zip code: 18431

Airport Operations

Airport use: Open to the public
Activation date: 03/1965
Control tower: no
ARTCC: NEW YORK CENTER
FSS: WILLIAMSPORT FLIGHT SERVICE STATION
NOTAMs facility: IPT (NOTAM-D service available)
Attendance: 0900-1700
Wind indicator: lighted
Segmented circle: no
Lights: SS-SR
Beacon: white-green (lighted land airport)
Operates sunset to sunrise.

Airport Communications

CTAF/UNICOM: 122.8
WILKES-BARRE APPROACH: 120.95
WILKES-BARRE DEPARTURE: 120.95

Nearby radio navigation aids

VOR radial/distance  VOR name  Freq  Var
LVZr064/24.5WILKES-BARRE VORTAC111.6010W
HUOr293/30.3HUGUENOT VOR/DME116.1011W
HNKr186/33.0HANCOCK VOR/DME116.8011W
STWr342/35.6STILLWATER VOR/DME109.6011W

Airport Services

Fuel available: 100LL
Parking: hangars and tiedowns
Airframe service: MAJOR
Powerplant service: MAJOR
Bottled oxygen: NONE
Bulk oxygen: NONE

Runway Information

Runway 18/36

Dimensions: 2986 x 50 ft. / 910 x 15 m
Surface: asphalt, in fair condition
Weight bearing capacity: 
Single wheel: 10.0
Runway edge lights: non-standard
RUNWAY 18  RUNWAY 36
Latitude: 41-31.175000N41-30.696000N
Longitude: 075-15.167500W075-15.019667W
Elevation: 1346.0 ft.1329.0 ft.
Traffic pattern: leftleft
Runway heading: 180 magnetic, 167 true000 magnetic, 347 true
Displaced threshold: 519 ft.589 ft.
Markings: basic, in good conditionbasic, in good condition
Touchdown point: yes, no lightsyes, no lights
Obstructions: 69 ft. tree, 1075 ft. from runway, 151 ft. left of centerline, 12:1 slope to clear
RWY 18: 8 FT TREES/BRUSH, 52 FT OUT, 50 FT L AND R OF CNTRLN.
37 ft. tree, 409 ft. from runway, 57 ft. left of centerline, 5:1 slope to clear
APCH RATIO 26:1 TO DTHR.

Airport Ownership and Management from official FAA records

Ownership: Privately-owned
Owner: EARLYNN AVIATION
30 BOMBER LANE
HONESDALE, PA 18431
Phone 570-253-5833
Manager: VINCENT VAN LAAK
30 BOMBER LANE
HONESDALE, PA 18431
Phone 570-253-5833

Airport Operational Statistics

Aircraft based on the field: 56
Single engine airplanes: 49
Multi engine airplanes: 1
Helicopters: 1
Ultralights: 5
    
Aircraft operations: avg 63/day *
65% local general aviation
35% transient general aviation
<1% military
* for 12-month period ending 28 October 2021

Additional Remarks

FOR CD CTC WILKES-BARRE APCH AT 570-655-2084.

Instrument Procedures

NOTE: All procedures below are presented as PDF files. If you need a reader for these files, you should download the free Adobe Reader.

NOT FOR NAVIGATION. Please procure official charts for flight.
FAA instrument procedures published for use from 14 July 2022 at 0901Z to 11 August 2022 at 0900z.

 
IAPs - Instrument Approach Procedures
RNAV (GPS)-B   download (154KB)
VOR/DME-A   download (189KB)
NOTE: Special Take-Off Minimums/Departure Procedures apply   download (149KB)

Other nearby airports with instrument procedures:

70N - Spring Hill Airport (13 nm SW)
9N3 - Seamans Field Airport (23 nm W)
KMSV - Sullivan County International Airport (23 nm NE)
KMPO - Pocono Mountains Regional Airport (23 nm S)
KAVP - Wilkes-Barre/Scranton International Airport (24 nm SW)
 
Loc | Ops | Rwys | IFR | FBO | Links
Com | Nav | Svcs | Stats | Notes
Area around N30 (Cherry Ridge Airport)
 
Road maps at: MapQuest Bing Google
 
Aerial photo
WARNING: Photo may not be current or correct
Aerial photo of N30 (Cherry Ridge Airport)
Photo by David M. Conboy
Photo taken 09-Mar-2020
looking south.

Do you have a better or more recent aerial photo of Cherry Ridge Airport that you would like to share? If so, please send us your photo.

 
Sectional chart

 
Airport distance calculator
Flying to Cherry Ridge Airport? Find the distance to fly.

From to N30

Sunrise and sunset
Times for 08-Aug-2022
 Local
(UTC-4)
 Zulu
(UTC)
Morning civil twilight05:3309:33
Sunrise06:0410:04
Sunset20:1000:10
Evening civil twilight20:4000:40

Current date and time
Zulu (UTC)  08-Aug-2022 14:49:00
Local (UTC-4)  08-Aug-2022 10:49:00
 
METAR
KMPO 
24nm S 
081353Z AUTO 25008KT 10SM SCT018 26/22 A3011 RMK AO2 SLP181 T02610217
KMSV 
24nm NE 
081406Z AUTO 21005KT 10SM SCT009 OVC015 25/23 A3008 RMK AO2
KAVP 
24nm SW 
081354Z 24010KT 10SM FEW016 27/22 A3005 RMK AO2 SLP167 T02720222
KFWN 
34nm SE 
081353Z AUTO 22008KT 180V250 10SM FEW016 28/24 A3003 RMK AO2 SLP167 T02780239
K12N 
38nm SE 
081354Z AUTO VRB04KT 29/23 A3005 RMK AO1 SLP165 T02940233
KMGJ 
44nm E 
SuperAWOS
081403Z AUTO 23008KT 10SM BKN021 BKN025 28/23 A3001 RMK AO2 T02780233 $
KHZL 
46nm SW 
081435Z AUTO 25004KT 10SM SCT020 27/21 A3012 RMK AO2
TAF
KAVP 
24nm SW 
081357Z 0814/0912 24008KT P6SM SCT028 TEMPO 0814/0816 BKN028 FM081600 23010KT P6SM SCT040 SCT060 FM082000 23011KT P6SM VCSH BKN060 FM090000 20003KT P6SM SCT100
NOTAMs
Click for the latest NOTAMs
NOTAMs are issued by the DoD/FAA and will open in a separate window not controlled by AirNav.

 

 
 

FBO, Fuel Providers, and Aircraft Ground Support

  
 Business Name 
 
 Contact 
 
 Services / Description 
 
Fuel Prices
 
Comments
  
Earlynn Aviation Inc 570-253-5833
no information available

If you are affiliated with Earlynn Aviation Inc and would like to show here your services, contact info, web link, logo, and more, click here
100LL
SS $7.65 
 Updated 02-Aug-2022
 
   2 read write
SS=Self service
Update Fuel Prices
 

Where to Eat: Catering, Restaurants, Food shops

  
 Business Name 
 
 Contact 
 
 Services / Description 
 
Distance
 
Comments
  
Cherry Ridge Restaurant 570-253-5517
[web site]
[email]
Restaurant

More info about Cherry Ridge Restaurant
on airport  
   write
 

Would you like to see your business listed on this page?

 If your business provides an interesting product or service to pilots, flight crews, aircraft, or users of the Cherry Ridge Airport, you should consider listing it here.  To start the listing process, click on the button below
 
Add a business
 

Other Pages about Cherry Ridge Airport

www.flycherryridge.com
 
Update a link
 
Copyright © AirNav, LLC. All rights reserved. Privacy Policy  Contact